Chattanooga, TN

9:50 PM EDT on September 23, 2017 (GMT -0400)
Lovell

Weather History for KCHA - July, 2013

Change the Weather History Date:

Saturday, July 27, 2013

  Actual Average Record
Temperature  
Mean Temperature 79 °F 80 °F  
Max Temperature 86 °F 90 °F 104 °F (1952)
Min Temperature 71 °F 70 °F 57 °F (1911)
Cooling Degree Days 14 15  
Month to date cooling degree days 363 401  
Year to date cooling degree days 938 942  
Since 1 June cooling degree days 762 746  
Growing Degree Days 28 (Base 50)    
Moisture  
Dew Point 68 °F    
Average Humidity 71    
Maximum Humidity 93    
Minimum Humidity 48    
Precipitation  
Precipitation 0.01 in 0.15 in 3.23 in (1976)
Month to date precipitation 7.79 4.32  
Year to date precipitation 46.93 31.19  
Snow  
Snow 0.00 in - - ()
Month to date snowfall 0.0  
Since 1 June snowfall 0.0  
Snow Depth 0.00 in    
Sea Level Pressure  
Sea Level Pressure 29.94 in    
Wind  
Wind Speed 3 mph (SSW)    
Max Wind Speed 14 mph    
Max Gust Speed 21 mph    
Visibility 9 miles    
Events      
T = Trace of Precipitation, MM = Missing Value Source: NWS Daily Summary

Daily Weather History Graph

Daily Weather History Graph

Search for Another Location

Airport or City:

Trip Planner

Search our weather history database for the weather conditions in past years. The results will help you decide how hot, cold, wet, or windy it might be!

Date:

Astronomy

Jul. 27, 2013 Rise Set
Actual Time 6:46 AM EDT 8:47 PM EDT
Civil Twilight 6:18 AM EDT 9:15 PM EDT
Nautical Twilight 5:44 AM EDT 9:49 PM EDT
Astronomical Twilight 5:07 AM EDT 10:26 PM EDT
Moon 11:51 PM EDT (7/27) 12:10 PM EDT (7/27)
Length of Visible Light 14h 57m
Length of Day
14h 00m
Waning Gibbous, 71% of the Moon is Illuminated
Jul 27
Waning Gibbous
Jul 29
Last Quarter
Aug 6
New
Aug 14
First Quarter
Aug 20
Full

Hourly Weather History & Observations

Time (EDT) Temp. Heat Index Dew Point Humidity Pressure Visibility Wind Dir Wind Speed Gust Speed Precip Events Conditions
12:53 AM 75.0 °F - 68.0 °F 79% 29.99 in 10.0 mi Calm Calm - N/A   Clear
1:53 AM 73.0 °F - 68.0 °F 84% 29.97 in 10.0 mi Calm Calm - N/A   Clear
2:53 AM 73.0 °F - 68.0 °F 84% 29.97 in 10.0 mi Calm Calm - N/A   Clear
3:53 AM 72.0 °F - 68.0 °F 87% 29.96 in 10.0 mi Calm Calm - N/A   Clear
4:53 AM 72.0 °F - 68.0 °F 87% 29.95 in 9.0 mi Calm Calm - N/A   Mostly Cloudy
5:53 AM 72.0 °F - 69.1 °F 91% 29.96 in 7.0 mi Calm Calm - N/A   Mostly Cloudy
6:53 AM 72.0 °F - 68.0 °F 87% 29.96 in 7.0 mi Calm Calm - N/A   Overcast
7:53 AM 73.0 °F - 69.1 °F 87% 29.96 in 5.0 mi Calm Calm - N/A   Mostly Cloudy
8:53 AM 73.0 °F - 69.1 °F 87% 29.96 in 5.0 mi Calm Calm - N/A   Overcast
9:03 AM 73.4 °F - 69.8 °F 88% 29.98 in 5.0 mi Calm Calm - N/A   Overcast
9:53 AM 75.0 °F - 69.1 °F 82% 29.97 in 5.0 mi Calm Calm - N/A   Haze
10:53 AM 75.9 °F - 70.0 °F 82% 29.97 in 5.0 mi South 4.6 mph - N/A   Haze
11:53 AM 78.1 °F - 70.0 °F 76% 29.96 in 7.0 mi SSE 3.5 mph - N/A   Mostly Cloudy
12:53 PM 81.0 °F 84.9 °F 71.1 °F 72% 29.94 in 9.0 mi SSE 4.6 mph - N/A   Mostly Cloudy
1:53 PM 77.0 °F - 69.1 °F 76% 29.94 in 10.0 mi North 5.8 mph - 0.01 in   Mostly Cloudy
2:00 PM 78.8 °F - 69.8 °F 74% 29.96 in 10.0 mi NNE 3.5 mph - N/A   Mostly Cloudy
2:53 PM 84.0 °F 87.0 °F 68.0 °F 58% 29.91 in 10.0 mi Variable 3.5 mph - N/A   Mostly Cloudy
3:53 PM 84.0 °F 87.8 °F 69.1 °F 61% 29.89 in 10.0 mi Variable 4.6 mph - N/A   Mostly Cloudy
4:53 PM 86.0 °F 87.3 °F 64.0 °F 48% 29.88 in 10.0 mi South 5.8 mph - N/A   Mostly Cloudy
5:53 PM 84.9 °F 87.6 °F 66.9 °F 55% 29.88 in 10.0 mi Variable 6.9 mph - N/A   Mostly Cloudy
6:53 PM 84.0 °F 84.9 °F 63.0 °F 49% 29.88 in 10.0 mi WSW 5.8 mph - N/A   Mostly Cloudy
7:53 PM 82.0 °F 83.8 °F 64.9 °F 56% 29.89 in 10.0 mi West 5.8 mph - N/A   Scattered Clouds
8:53 PM 81.0 °F 83.0 °F 66.0 °F 60% 29.90 in 10.0 mi SW 5.8 mph - N/A   Mostly Cloudy
9:53 PM 78.1 °F - 66.9 °F 68% 29.91 in 10.0 mi South 3.5 mph - N/A   Mostly Cloudy
10:53 PM 77.0 °F - 68.0 °F 74% 29.92 in 10.0 mi South 3.5 mph - N/A   Mostly Cloudy
11:53 PM 75.9 °F - 66.9 °F 74% 29.93 in 10.0 mi South 4.6 mph - N/A   Scattered Clouds